Flag for Austria Weather past 2 weeks in Hollabrunn, Lower Austria, Austria

Now
75 °F

Mild.


Feels Like: 77 °F
Forecast: 63 / 79 °F
Wind: 2 mph from Northeast

Location: Retz

Current Time: Jul 28, 2014 at 1:51:56 PM

Latest Report: Jul 28, 2014 at 1:00 PM


Visibility: N/A

Pressure: 29.85 "Hg

Humidity: 65%

Dew point: 63 °F

Location of HollabrunnLocation

Historic Weather in Hollabrunn — Graph

°F

Hollabrunn temperature yesterday

Maximum temperature yesterday: 83 °F (at 1:00 PM)
Minimum temperature yesterday: 68 °F (at 6:00 AM)
Average temperature yesterday: 75 °F

Past Weeks' High & Low Weather Summary

 TemperatureHumidityPressure
High90 °F (Jul 20, 3:00 PM)96% (Jul 14, 6:00 AM)30.12 "Hg (Jul 14, 6:00 AM)
Low57 °F (Jul 14, 6:00 AM)34% (Jul 17, 3:00 PM)29.65 "Hg (Jul 21, 4:00 PM)
Average72 °F64%29.92 "Hg
* Reported Jul 13 12:00 Noon — Jul 28 12:00 Noon, Hollabrunn, Weather by CustomWeather, © 2014

Note: Actual official high and low records may vary slightly from our data, if they occured in-between our weather recording intervals... More about our weather records

Advertising

Hollabrunn weather history for previous 24 hours

 ConditionsComfort  
Time TempWeatherWind HumidityBarometerVisibility
12:00 PM
Jul 28
72 °FMild.3 mph71%29.87 "HgN/A
11:00 AM71 °FMild.2 mph73%29.88 "HgN/A
10:00 AM68 °FMild.2 mph85%29.89 "HgN/A
9:00 AM67 °FMild.2 mph83%29.89 "HgN/A
8:00 AM68 °FPartly sunny.2 mph81%29.88 "Hg7 mi
7:00 AM65 °FPartly sunny.1 mph88%29.89 "Hg5 mi
6:00 AM65 °FMild.2 mph89%29.88 "HgN/A
5:00 AM65 °FMild.2 mph91%29.87 "HgN/A
4:00 AM65 °FMild.2 mph92%29.89 "HgN/A
3:00 AM66 °FMild.2 mph89%29.89 "HgN/A
2:00 AM67 °FMild.2 mph86%29.89 "HgN/A
1:00 AM69 °FMild.2 mph82%29.90 "HgN/A
12:00 AM69 °FMild.2 mph82%29.90 "HgN/A
11:00 PM
Jul 27
69 °FMild.2 mph80%29.91 "HgN/A
10:00 PM71 °FMild.3 mph70%29.88 "HgN/A
9:00 PM73 °FMild.1 mph71%29.87 "HgN/A
8:00 PM76 °FScattered clouds.1 mph66%29.86 "Hg17 mi
7:00 PM79 °FWarm.2 mph57%29.85 "HgN/A
6:00 PM79 °FWarm.3 mph58%29.85 "HgN/A
5:00 PM77 °FWarm.5 mph63%29.86 "HgN/A
4:00 PM80 °FWarm.8 mph59%29.85 "HgN/A
3:00 PM83 °FWarm.5 mph46%29.84 "HgN/A
2:00 PM83 °FPartly sunny.2 mph41%29.85 "Hg17 mi
1:00 PM83 °FWarm.2 mph45%29.86 "HgN/A
Weather by CustomWeather, © 2014

See weather overviewHow to use our weather pages